TimeCST,TemperatureF,Dew PointF,Humidity,Sea Level PressureIn,VisibilityMPH,Wind Direction,Wind SpeedMPH,Gust SpeedMPH,PrecipitationIn,Events,Conditions,WindDirDegrees,DateUTC
12:54 AM,39.2,30.2,70,30.44,10.0,East,8.1,-,N/A,,Clear,80,2013-01-10 06:54:00
1:54 AM,39.0,30.9,73,30.42,10.0,ENE,5.8,-,N/A,,Clear,70,2013-01-10 07:54:00
2:54 AM,44.1,28.9,55,30.41,10.0,ENE,4.6,-,N/A,,Clear,70,2013-01-10 08:54:00
3:54 AM,45.0,28.9,53,30.37,10.0,East,8.1,-,N/A,,Partly Cloudy,80,2013-01-10 09:54:00
4:54 AM,45.0,30.0,56,30.34,10.0,East,8.1,-,N/A,,Overcast,80,2013-01-10 10:54:00
5:54 AM,43.0,33.1,68,30.32,10.0,East,10.4,-,0.00,Rain,Light Rain,80,2013-01-10 11:54:00
6:47 AM,44.6,30.2,57,30.28,10.0,East,10.4,-,0.00,,Overcast,90,2013-01-10 12:47:00
6:54 AM,45.0,30.9,58,30.30,10.0,East,10.4,-,0.00,,Overcast,100,2013-01-10 12:54:00
7:47 AM,44.6,35.6,71,30.28,10.0,East,12.7,-,0.00,,Overcast,90,2013-01-10 13:47:00
7:54 AM,43.0,36.0,76,30.28,9.0,East,11.5,19.6,0.00,,Overcast,90,2013-01-10 13:54:00
8:54 AM,42.1,37.9,85,30.27,6.0,East,8.1,-,0.02,Rain,Light Rain,90,2013-01-10 14:54:00
9:54 AM,42.1,39.0,89,30.24,4.0,ESE,8.1,-,0.02,,Overcast,110,2013-01-10 15:54:00
10:11 AM,42.8,39.2,87,30.21,9.0,ESE,8.1,-,N/A,,Overcast,110,2013-01-10 16:11:00
10:42 AM,42.8,39.2,87,30.21,10.0,East,4.6,-,N/A,,Overcast,100,2013-01-10 16:42:00
10:54 AM,43.0,39.9,89,30.20,10.0,East,10.4,-,N/A,,Overcast,100,2013-01-10 16:54:00
11:54 AM,44.1,42.1,93,30.12,5.0,East,10.4,-,N/A,,Overcast,100,2013-01-10 17:54:00
12:47 PM,44.6,42.8,93,30.08,2.5,East,8.1,-,N/A,,Overcast,90,2013-01-10 18:47:00
12:54 PM,45.0,43.0,93,30.08,1.8,East,8.1,-,N/A,,Overcast,100,2013-01-10 18:54:00
1:05 PM,44.6,42.8,93,30.07,0.8,ESE,8.1,-,N/A,,Overcast,110,2013-01-10 19:05:00
1:54 PM,46.0,44.1,93,30.06,0.8,ESE,9.2,-,N/A,,Overcast,120,2013-01-10 19:54:00
2:54 PM,46.9,45.0,93,30.01,0.5,ESE,5.8,-,N/A,Fog,Fog,110,2013-01-10 20:54:00
3:54 PM,46.9,46.0,97,29.98,0.8,NE,3.5,-,0.00,,Light Drizzle,40,2013-01-10 21:54:00
4:54 PM,46.9,46.0,97,29.95,0.5,ENE,5.8,-,0.01,Fog,Fog,70,2013-01-10 22:54:00
5:54 PM,46.9,46.0,97,29.95,0.8,Calm,Calm,-,0.00,,Mist,0,2013-01-10 23:54:00
6:54 PM,46.9,46.0,97,29.92,0.8,ENE,5.8,-,0.01,,Overcast,70,2013-01-11 00:54:00
7:03 PM,46.4,46.4,100,29.91,1.2,ENE,5.8,-,N/A,,Overcast,70,2013-01-11 01:03:00
7:14 PM,48.2,46.4,93,29.91,3.0,East,3.5,-,N/A,,Overcast,80,2013-01-11 01:14:00
7:54 PM,51.1,50.0,96,29.88,6.0,East,3.5,-,0.01,,Overcast,100,2013-01-11 01:54:00
8:54 PM,51.1,50.0,96,29.84,4.0,NNE,3.5,-,0.03,Rain,Light Rain,30,2013-01-11 02:54:00
9:05 PM,51.8,48.2,88,29.82,2.0,ENE,4.6,-,0.02,Rain,Light Rain,60,2013-01-11 03:05:00
9:29 PM,51.8,50.0,94,29.80,3.0,East,4.6,-,0.03,Rain,Light Rain,80,2013-01-11 03:29:00
9:38 PM,51.8,50.0,94,29.81,2.0,Calm,Calm,-,0.06,Rain,Rain,0,2013-01-11 03:38:00
9:50 PM,51.8,50.0,94,29.80,3.0,Calm,Calm,-,0.09,Rain,Rain,0,2013-01-11 03:50:00
9:54 PM,51.1,50.0,96,29.80,2.0,North,5.8,-,0.10,Rain,Rain,350,2013-01-11 03:54:00
10:24 PM,51.8,51.8,100,29.79,3.0,Calm,Calm,-,0.01,Rain,Light Rain,0,2013-01-11 04:24:00
10:46 PM,51.8,48.2,88,29.79,1.8,WNW,3.5,-,0.04,Rain,Light Rain,290,2013-01-11 04:46:00
10:54 PM,51.1,50.0,96,29.78,1.5,Calm,Calm,-,0.06,Rain,Light Rain,0,2013-01-11 04:54:00
11:10 PM,51.8,51.8,100,29.79,3.0,South,5.8,-,0.01,Rain,Light Rain,180,2013-01-11 05:10:00
11:17 PM,51.8,50.0,94,29.79,6.0,WNW,8.1,-,N/A,Rain,Light Rain,300,2013-01-11 05:17:00
11:22 PM,50.0,48.2,94,29.79,2.5,Calm,Calm,-,0.01,,Overcast,0,2013-01-11 05:22:00
11:30 PM,51.8,50.0,94,29.78,5.0,West,3.5,-,0.01,,Mostly Cloudy,260,2013-01-11 05:30:00
11:40 PM,51.8,50.0,94,29.79,9.0,West,4.6,-,0.01,,Scattered Clouds,260,2013-01-11 05:40:00
11:54 PM,53.1,51.1,93,29.79,10.0,WSW,4.6,-,0.01,,Clear,240,2013-01-11 05:54:00